GW0169 Weather Reports


Display with metric or nautical units.
time (UTC)temp
F
wind
direction
speed
MPH
gust
MPH
rain 1hr
in
rain 24hr
in
rain mn
in
humidity
%
barometer
mb
20260507180036 73 287 7.0 18.0 0.00 0.00 0.00 68 1010.1
20260507174553 74 247 9.0 24.0 0.00 0.00 0.00 66 1010.4
20260507173040 75 249 13.0 27.0 0.00 0.00 0.00 65 1010.4
20260507171542 76 237 12.0 25.0 0.00 0.00 0.00 66 1010.4
20260507170044 76 296 14.0 22.0 0.00 0.00 0.00 67 1010.8
20260507164537 76 301 10.0 22.0 0.00 0.00 0.00 67 1011.1
20260507163037 75 345 15.0 30.0 0.00 0.00 0.00 65 1011.2
20260507161551 75 268 13.0 23.0 0.00 0.00 0.00 65 1011.5
20260507160042 75 253 13.0 23.0 0.00 0.00 0.00 65 1011.6
20260507154543 75 330 12.0 23.0 0.00 0.00 0.00 67 1011.9
20260507153042 75 245 11.0 26.0 0.00 0.00 0.00 67 1012.5
20260507151537 75 287 11.0 20.0 0.00 0.00 0.00 69 1012.7
20260507150043 74 301 9.0 20.0 0.00 0.00 0.00 72 1012.9
20260507144539 71 272 7.0 16.0 0.00 0.00 0.00 77 1013.4
20260507143038 71 262 11.0 24.0 0.00 0.00 0.00 76 1014.0
20260507141537 71 249 7.0 21.0 0.00 0.00 0.00 78 1014.2
20260507140038 70 248 13.0 23.0 0.00 0.00 0.00 78 1014.6
20260507134535 71 295 7.0 15.0 0.00 0.00 0.00 77 1014.9
20260507133039 69 284 9.0 14.0 0.00 0.00 0.00 79 1015.2
20260507131538 69 301 7.0 14.0 0.00 0.00 0.00 80 1015.2
20260507130055 70 299 5.0 14.0 0.00 0.00 0.00 80 1015.5
20260507124536 68 287 7.0 15.0 0.00 0.00 0.00 82 1015.4
20260507123041 68 260 7.0 13.0 0.00 0.00 0.00 84 1015.5
20260507121543 67 301 7.0 13.0 0.00 0.00 0.00 85 1015.6
20260507120039 67 302 6.0 14.0 0.00 0.00 0.00 85 1015.7
20260507114539 66 288 4.0 11.0 0.00 0.00 0.00 87 1015.9
20260507113037 65 0 5.0 8.0 0.00 0.00 0.00 88 1015.9
20260507111536 65 341 3.0 8.0 0.00 0.00 0.00 88 1015.9
20260507110043 65 291 2.0 7.0 0.00 0.00 0.00 88 1015.9
20260507104537 64 347 1.0 7.0 0.00 0.00 0.00 89 1015.8
20260507103036 64 0 1.0 4.0 0.00 0.00 0.00 89 1015.8
20260507101542 64 309 1.0 5.0 0.00 0.00 0.00 90 1015.8
20260507100047 64 0 0.0 2.0 0.00 0.00 0.00 89 1015.8
20260507094539 64 0 0.0 4.0 0.00 0.00 0.00 89 1015.9
20260507093039 63 78 0.0 6.0 0.00 0.00 0.00 89 1015.8
20260507091537 63 85 1.0 3.0 0.00 0.00 0.00 88 1015.7
20260507090036 63 39 0.0 1.0 0.00 0.00 0.00 89 1015.9
20260507084544 63 0 0.0 4.0 0.00 0.00 0.00 89 1016.0
20260507083051 63 77 1.0 5.0 0.00 0.00 0.00 89 1016.0
20260507081538 62 62 2.0 4.0 0.00 0.00 0.00 90 1016.1
20260507080038 62 0 0.0 3.0 0.00 0.00 0.00 90 1016.2
20260507074537 62 0 0.0 2.0 0.00 0.00 0.00 90 1016.3
20260507073048 63 0 0.0 3.0 0.00 0.00 0.00 90 1016.5
20260507071539 63 0 0.0 6.0 0.00 0.00 0.00 89 1016.6
20260507070041 63 98 1.0 4.0 0.00 0.00 0.00 89 1016.7
20260507064541 63 131 1.0 4.0 0.00 0.00 0.00 88 1016.8
20260507063041 63 85 0.0 6.0 0.00 0.00 0.00 88 1017.0
20260507061544 64 95 1.0 8.0 0.00 0.00 0.00 87 1017.2
20260507060041 64 31 0.0 4.0 0.00 0.00 0.00 87 1017.4
20260507054541 64 97 1.0 6.0 0.00 0.00 0.00 86 1017.6
20260507053037 64 0 0.0 3.0 0.00 0.00 0.00 85 1017.7
20260507051542 64 0 0.0 0.0 0.00 0.00 0.00 85 1018.0
20260507050040 64 0 0.0 0.0 0.00 0.00 0.00 86 1018.1
20260507044541 63 0 0.0 0.0 0.00 0.00 0.00 87 1018.5
20260507043041 63 0 0.0 2.0 0.00 0.00 0.00 89 1018.6
20260507041545 62 0 0.0 0.0 0.00 0.00 0.00 92 1018.8
20260507040038 61 0 0.0 0.0 0.00 0.00 0.00 94 1019.0
20260507034545 61 0 0.0 0.0 0.00 0.00 0.00 94 1019.2
20260507033040 60 0 0.0 0.0 0.00 0.00 0.00 94 1019.4
20260507031538 60 0 0.0 0.0 0.00 0.00 0.00 92 1019.5
20260507030039 61 0 0.0 0.0 0.00 0.00 0.00 94 1019.8
20260507024538 61 0 0.0 1.0 0.00 0.00 0.00 95 1019.8
20260507023040 60 0 0.0 1.0 0.00 0.00 0.00 95 1020.1
20260507021539 59 0 0.0 1.0 0.00 0.00 0.00 94 1020.1
20260507020052 59 0 0.0 0.0 0.00 0.00 0.00 94 1020.2
20260507014544 60 0 0.0 0.0 0.00 0.00 0.00 94 1020.4
20260507013042 60 0 0.0 0.0 0.00 0.00 0.00 94 1020.6
20260507011537 60 0 0.0 0.0 0.00 0.00 0.00 93 1020.7
20260507010042 60 0 0.0 0.0 0.00 0.00 0.00 93 1020.7
20260507004543 61 0 0.0 1.0 0.00 0.00 0.00 93 1020.7
20260507003038 61 0 0.0 0.0 0.00 0.00 0.00 93 1020.7
20260507001538 61 0 0.0 0.0 0.00 0.00 0.00 91 1020.8
20260507000038 62 0 0.0 1.0 0.00 0.00 0.00 91 1020.9
20260506234543 63 0 0.0 1.0 0.00 0.00 0.00 91 1020.9
20260506233040 63 0 0.0 0.0 0.00 0.00 0.00 91 1021.0
20260506231549 63 0 0.0 0.0 0.00 0.00 0.00 90 1021.0
20260506230052 64 0 0.0 0.0 0.00 0.00 0.00 90 1021.2
20260506224538 64 0 0.0 0.0 0.00 0.00 0.00 90 1021.2
20260506223048 65 0 0.0 1.0 0.00 0.00 0.00 90 1021.2
20260506221535 65 0 0.0 1.0 0.00 0.00 0.00 89 1021.0
20260506220043 65 0 0.0 0.0 0.00 0.00 0.00 89 1020.9
20260506214538 65 0 0.0 1.0 0.00 0.00 0.00 88 1020.7
20260506213054 66 0 0.0 2.0 0.00 0.00 0.00 88 1020.6
20260506211548 67 0 0.0 1.0 0.00 0.00 0.00 86 1020.7
20260506210037 68 264 0.0 1.0 0.00 0.00 0.00 85 1020.8
20260506204547 69 264 0.0 2.0 0.00 0.00 0.00 84 1020.8
20260506203045 71 264 1.0 2.0 0.00 0.00 0.00 81 1020.9
20260506201552 73 264 0.0 2.0 0.00 0.00 0.00 79 1020.9
20260506200037 75 264 0.0 1.0 0.00 0.00 0.00 73 1020.9
20260506194537 77 264 0.0 3.0 0.00 0.00 0.00 68 1020.9
20260506193041 77 260 1.0 4.0 0.00 0.00 0.00 67 1020.9
20260506191545 76 273 2.0 6.0 0.00 0.00 0.00 68 1020.9
20260506190038 77 267 2.0 7.0 0.00 0.00 0.00 66 1020.9
20260506184536 77 299 2.0 9.0 0.00 0.00 0.00 67 1021.0
20260506183056 78 253 4.0 9.0 0.00 0.00 0.00 65 1021.0
20260506181539 77 274 5.0 10.0 0.00 0.00 0.00 65 1021.1